• In Hungary
  • List of Countries
  • For 7 days
  • Water Temperature
  • Satellite Maps
  • Weather Map
  • News
  • Weather Widgets
  • user-avatar
    Login

    Hourly Weather Stillwater

    Today, 20 January, Saturday

    Time Temperature Precipitation Wind Pressure Humidity
    00:00 +6°C° 0 mm 8 mps 734 mmHg 90%
    01:00 +7°C° 0 mm 8 mps 734 mmHg 90%
    02:00 +7°C° 0 mm 8 mps 734 mmHg 90%
    03:00 +7°C° 0 mm 8 mps 734 mmHg 90%
    04:00 +9°C° 0 mm 8 mps 734 mmHg 89%
    05:00 +9°C° 0 mm 8 mps 734 mmHg 88%
    06:00 +9°C° 0 mm 7 mps 734 mmHg 87%
    07:00 +9°C° 0 mm 7 mps 734 mmHg 87%
    08:00 +9°C° 0 mm 7 mps 734 mmHg 86%
    09:00 +9°C° 0 mm 7 mps 734 mmHg 85%
    10:00 +10°C° 0 mm 7 mps 734 mmHg 80%
    11:00 +11°C° 0 mm 7 mps 734 mmHg 75%
    12:00 +12°C° 0 mm 7 mps 734 mmHg 70%
    13:00 +14°C° 0 mm 7 mps 733 mmHg 65%
    14:00 +16°C° 0 mm 7 mps 733 mmHg 60%
    15:00 +17°C° 0 mm 7 mps 732 mmHg 55%
    16:00 +15°C° 0 mm 6 mps 732 mmHg 59%
    17:00 +14°C° 0 mm 6 mps 732 mmHg 63%
    18:00 +13°C° 0 mm 5 mps 732 mmHg 66%
    19:00 +13°C° 0 mm 5 mps 732 mmHg 69%
    20:00 +11°C° 0 mm 6 mps 732 mmHg 71%
    21:00 +11°C° 0 mm 6 mps 732 mmHg 73%
    22:00 +11°C° 0 mm 6 mps 732 mmHg 77%
    23:00 +11°C° 0 mm 7 mps 732 mmHg 80%

    Tomorrow, 21 January, Sunday

    Time Temperature Precipitation Wind Pressure Humidity
    00:00 +11°C° 0 mm 7 mps 732 mmHg 83%
    01:00 +11°C° 0 mm 7 mps 732 mmHg 83%
    02:00 +10°C° 0 mm 7 mps 732 mmHg 82%
    03:00 +10°C° 0 mm 7 mps 731 mmHg 81%
    04:00 +10°C° 0 mm 7 mps 731 mmHg 80%
    05:00 +10°C° 0 mm 7 mps 731 mmHg 79%
    06:00 +10°C° 0 mm 7 mps 731 mmHg 78%
    07:00 +11°C° 0 mm 8 mps 731 mmHg 80%
    08:00 +11°C° 0 mm 9 mps 731 mmHg 82%
    09:00 +12°C° 0 mm 9 mps 732 mmHg 84%
    10:00 +13°C° 0 mm 9 mps 731 mmHg 82%
    11:00 +15°C° 0 mm 9 mps 731 mmHg 80%
    12:00 +16°C° 0 mm 9 mps 730 mmHg 78%
    13:00 +17°C° 0 mm 10 mps 729 mmHg 68%
    14:00 +18°C° 0 mm 10 mps 728 mmHg 57%
    15:00 +21°C° 0 mm 10 mps 727 mmHg 47%
    16:00 +18°C° 0 mm 9 mps 727 mmHg 41%
    17:00 +16°C° 0 mm 8 mps 727 mmHg 35%
    18:00 +14°C° 0 mm 6 mps 727 mmHg 28%
    19:00 +14°C° 0 mm 7 mps 727 mmHg 27%
    20:00 +12°C° 0 mm 7 mps 727 mmHg 27%
    21:00 +11°C° 0 mm 8 mps 727 mmHg 26%
    22:00 +11°C° 0 mm 8 mps 727 mmHg 27%
    23:00 +10°C° 0 mm 9 mps 727 mmHg 28%

    Day after tomorrow, 22 January, Monday

    Time Temperature Precipitation Wind Pressure Humidity
    00:00 +10°C° 0 mm 9 mps 727 mmHg 29%
    01:00 +7°C° 0 mm 9 mps 727 mmHg 40%
    02:00 +6°C° 0 mm 9 mps 728 mmHg 51%
    03:00 +3°C° 0 mm 9 mps 728 mmHg 62%
    04:00 +3°C° 0 mm 9 mps 729 mmHg 60%
    05:00 +2°C° 0 mm 9 mps 729 mmHg 58%
    06:00 +2°C° 0 mm 9 mps 730 mmHg 56%
    07:00 +2°C° 0 mm 9 mps 731 mmHg 55%
    08:00 +2°C° 0 mm 10 mps 732 mmHg 54%
    09:00 +2°C° 0 mm 10 mps 733 mmHg 52%
    10:00 +3°C° 0 mm 11 mps 733 mmHg 50%
    11:00 +4°C° 0 mm 11 mps 734 mmHg 48%
    12:00 +6°C° 0 mm 11 mps 734 mmHg 46%
    13:00 +6°C° 0 mm 11 mps 735 mmHg 44%
    14:00 +7°C° 0 mm 11 mps 735 mmHg 43%
    15:00 +7°C° 0 mm 11 mps 735 mmHg 41%
    16:00 +7°C° 0 mm 9 mps 735 mmHg 42%
    17:00 +6°C° 0 mm 7 mps 736 mmHg 44%
    18:00 +6°C° 0 mm 5 mps 737 mmHg 45%
    19:00 +5°C° 0 mm 5 mps 737 mmHg 45%
    20:00 +5°C° 0 mm 5 mps 738 mmHg 45%
    21:00 +3°C° 0 mm 5 mps 739 mmHg 45%
    22:00 +2°C° 0 mm 5 mps 739 mmHg 47%
    23:00 +3°C° 0 mm 4 mps 740 mmHg 49%

    23 January, Tuesday

    Time Temperature Precipitation Wind Pressure Humidity
    00:00 +1°C° 0 mm 4 mps 740 mmHg 51%
    01:00 +1°C° 0 mm 4 mps 740 mmHg 53%
    02:00 0°C° 0 mm 4 mps 740 mmHg 54%
    03:00 +1°C° 0 mm 3 mps 741 mmHg 56%
    04:00 0°C° 0 mm 3 mps 741 mmHg 58%
    05:00 0°C° 0 mm 3 mps 741 mmHg 60%
    06:00 -1°C° 0 mm 3 mps 742 mmHg 62%
    07:00 0°C° 0 mm 3 mps 742 mmHg 60%
    08:00 0°C° 0 mm 3 mps 743 mmHg 58%
    09:00 +1°C° 0 mm 3 mps 744 mmHg 56%
    10:00 +3°C° 0 mm 3 mps 744 mmHg 49%
    11:00 +5°C° 0 mm 3 mps 744 mmHg 43%
    12:00 +8°C° 0 mm 3 mps 745 mmHg 36%
    13:00 +9°C° 0 mm 3 mps 744 mmHg 34%
    14:00 +10°C° 0 mm 3 mps 744 mmHg 32%
    15:00 +11°C° 0 mm 3 mps 744 mmHg 30%
    16:00 +10°C° 0 mm 2 mps 744 mmHg 34%
    17:00 +8°C° 0 mm 2 mps 744 mmHg 38%
    18:00 +8°C° 0 mm 1 mps 744 mmHg 42%
    19:00 +8°C° 0 mm 1 mps 745 mmHg 44%
    20:00 +7°C° 0 mm 1 mps 745 mmHg 46%
    21:00 +6°C° 0 mm 1 mps 746 mmHg 48%
    22:00 +6°C° 0 mm 1 mps 746 mmHg 49%
    23:00 +6°C° 0 mm 1 mps 747 mmHg 50%

    24 January, Wednesday

    Time Temperature Precipitation Wind Pressure Humidity
    00:00 +6°C° 0 mm 1 mps 747 mmHg 51%
    01:00 +5°C° 0 mm 1 mps 747 mmHg 53%
    02:00 +5°C° 0 mm 1 mps 747 mmHg 54%
    03:00 +5°C° 0 mm 1 mps 747 mmHg 55%
    04:00 +4°C° 0 mm 1 mps 748 mmHg 57%
    05:00 +4°C° 0 mm 1 mps 748 mmHg 60%
    06:00 +2°C° 0 mm 2 mps 748 mmHg 62%
    07:00 +4°C° 0 mm 1 mps 749 mmHg 61%
    08:00 +4°C° 0 mm 1 mps 750 mmHg 61%
    09:00 +5°C° 0 mm 1 mps 750 mmHg 60%
    10:00 +6°C° 0 mm 1 mps 750 mmHg 54%
    11:00 +8°C° 0 mm 1 mps 750 mmHg 49%
    12:00 +10°C° 0 mm 1 mps 750 mmHg 43%
    13:00 +11°C° 0 mm 1 mps 749 mmHg 41%
    14:00 +11°C° 0 mm 1 mps 749 mmHg 38%
    15:00 +12°C° 0 mm 1 mps 748 mmHg 36%
    16:00 +11°C° 0 mm 1 mps 748 mmHg 39%
    17:00 +10°C° 0 mm 1 mps 748 mmHg 42%
    18:00 +9°C° 0 mm 1 mps 748 mmHg 46%
    19:00 +8°C° 0 mm 1 mps 749 mmHg 48%
    20:00 +8°C° 0 mm 1 mps 749 mmHg 50%
    21:00 +6°C° 0 mm 2 mps 749 mmHg 51%
    22:00 +6°C° 0 mm 2 mps 749 mmHg 53%
    23:00 +4°C° 0 mm 3 mps 749 mmHg 55%

    25 January, Thursday

    Time Temperature Precipitation Wind Pressure Humidity
    00:00 +4°C° 0 mm 3 mps 749 mmHg 57%
    01:00 +4°C° 0 mm 3 mps 749 mmHg 58%
    02:00 +3°C° 0 mm 3 mps 748 mmHg 59%
    03:00 +3°C° 0 mm 3 mps 748 mmHg 60%
    04:00 +3°C° 0 mm 3 mps 748 mmHg 60%
    05:00 +2°C° 0 mm 3 mps 748 mmHg 61%
    06:00 +2°C° 0 mm 3 mps 748 mmHg 62%
    07:00 +3°C° 0 mm 3 mps 748 mmHg 60%
    08:00 +3°C° 0 mm 4 mps 749 mmHg 58%
    09:00 +4°C° 0 mm 4 mps 749 mmHg 57%
    10:00 +6°C° 0 mm 5 mps 748 mmHg 50%
    11:00 +9°C° 0 mm 5 mps 748 mmHg 44%
    12:00 +11°C° 0 mm 6 mps 748 mmHg 38%
    13:00 +11°C° 0 mm 6 mps 747 mmHg 36%
    14:00 +12°C° 0 mm 7 mps 746 mmHg 34%
    15:00 +14°C° 0 mm 7 mps 745 mmHg 33%
    16:00 +11°C° 0 mm 6 mps 745 mmHg 37%
    17:00 +10°C° 0 mm 5 mps 745 mmHg 41%
    18:00 +9°C° 0 mm 5 mps 745 mmHg 45%
    19:00 +8°C° 0 mm 5 mps 745 mmHg 46%
    20:00 +7°C° 0 mm 5 mps 744 mmHg 48%
    21:00 +7°C° 0 mm 6 mps 744 mmHg 50%
    22:00 +5°C° 0 mm 6 mps 744 mmHg 50%
    23:00 +5°C° 0 mm 6 mps 744 mmHg 50%
    Show more